Wind_Speed
14 14 15 15 16 17 17 19 19 24 27 28 29 31 33 36 39 44 47 47 49 50 51 51 51 50 47 44 42 41 41 41 42 41 40 39 39 38 37 36 36 37 38 39 41 42 40 39 38
16 16 18 19 16 5 29 29 26 29 29 30 30 32 35 38 41 43 46 49 50 51 51 54 51 46 44 42 41 41 42 43 42 40 38 36 35 35 35 35 36 37 38 40 41 41 40 41 40
19 20 20 20 19 21 27 27 28 30 31 32 33 34 36 40 42 45 49 51 51 51 53 50 45 43 41 41 41 42 42 40 39 38 37 36 35 34 34 35 37 38 39 41 43 44 43 42 43
19 20 21 19 25 22 28 28 30 31 33 35 35 37 40 42 45 47 49 50 51 52 49 44 42 41 41 40 39 39 40 39 38 37 36 37 37 37 37 36 36 36 37 38 41 45 46 45 45
20 20 21 27 24 26 27 30 31 33 34 37 37 39 42 45 47 49 49 50 51 48 43 41 41 40 39 39 40 39 39 39 39 39 39 39 37 36 36 37 37 37 38 39 40 41 46 49 49
23 21 20 15 31 24 28 31 34 35 36 37 40 41 44 46 48 49 50 49 47 41 39 39 38 37 39 39 39 39 40 40 40 39 38 37 37 35 34 32 33 33 35 37 40 42 42 45 49
24 24 22 32 31 34 32 33 36 37 38 40 42 42 45 47 49 51 49 44 39 38 38 37 37 37 37 38 38 39 40 40 39 38 37 36 33 34 35 36 37 40 42 42 42 42 42 44 47
26 25 29 36 36 32 33 38 38 39 40 42 44 44 46 49 51 50 40 38 37 37 36 35 37 37 38 39 40 40 39 38 38 39 39 38 40 41 43 45 47 50 53 53 49 45 46 45 43
29 28 22 34 40 33 35 38 38 40 42 43 45 46 47 50 50 40 36 36 36 36 35 35 37 38 39 41 41 41 39 38 38 39 42 44 46 48 51 54 56 58 56 53 51 48 46 48 47
32 33 35 37 41 40 40 39 41 42 42 44 45 46 49 47 39 35 35 35 35 34 34 34 36 37 40 40 39 38 37 38 40 42 45 49 52 55 58 58 56 55 54 52 51 50 49 49 48
35 37 36 38 41 42 42 42 43 44 43 43 45 47 46 39 35 34 34 33 33 32 33 35 36 38 38 38 36 36 39 41 43 48 52 55 58 57 56 57 56 54 52 49 49 47 49 50 51
37 38 40 41 42 43 44 44 45 44 43 44 46 46 39 33 32 32 32 31 31 32 33 35 37 37 38 36 36 39 42 46 51 54 55 57 59 60 58 57 56 56 54 52 53 51 50 53 53
40 40 40 41 42 44 46 45 44 42 44 47 46 37 31 30 29 29 29 29 30 31 32 35 36 37 34 34 38 42 46 51 54 56 58 61 62 59 61 62 63 62 62 62 61 58 57 57 58
41 44 44 45 44 43 43 42 43 44 45 40 31 28 27 27 26 26 26 28 28 30 32 34 35 33 32 37 41 46 52 56 56 59 62 65 64 66 69 70 71 72 74 73 70 67 65 64 64
39 42 45 46 46 45 45 45 42 38 31 27 24 24 25 25 24 24 25 26 28 30 32 33 32 30 35 40 45 50 56 56 58 63 68 69 69 72 76 79 81 83 85 85 83 81 77 72 72
39 40 41 38 40 40 41 40 32 26 22 21 21 21 22 22 22 23 23 26 28 30 32 30 28 33 38 44 49 53 56 57 62 69 71 72 75 79 83 88 91 92 86 73 63 60 60 66 78
36 37 35 29 28 25 25 24 19 19 19 18 18 19 21 20 21 21 23 26 28 30 28 26 30 35 41 46 51 55 57 62 67 71 72 75 80 86 91 95 88 65 51 41 33 28 30 34 47
34 35 33 25 21 19 19 19 15 16 16 16 17 18 18 18 18 20 23 26 28 27 24 26 32 37 43 47 52 56 61 64 69 71 75 79 86 92 97 82 56 40 28 28 28 28 30 34 35
30 29 30 27 18 20 17 17 13 14 14 15 15 16 17 17 17 21 23 26 27 23 22 28 34 38 45 48 55 60 62 67 70 73 78 84 90 96 87 54 35 30 30 29 25 23 23 22 18
28 27 29 26 20 18 16 15 14 12 13 13 14 15 16 16 18 20 23 25 23 20 23 29 34 40 46 51 57 61 64 69 70 74 80 86 92 94 61 37 33 31 29 26 23 18 17 11 9
27 26 27 25 17 17 17 15 13 11 11 12 13 14 14 16 18 21 24 24 20 19 25 30 35 42 46 52 58 62 64 69 70 75 81 87 93 76 43 37 34 31 27 23 17 14 11 10 4
28 19 23 20 15 16 15 16 10 11 11 11 12 13 14 16 20 23 25 22 17 20 25 31 37 42 47 53 59 63 66 69 71 75 81 87 90 59 39 37 34 29 24 21 17 13 10 5 1
24 19 16 15 14 14 14 14 13 11 11 11 11 12 14 17 20 22 23 21 17 21 26 31 38 44 49 54 59 63 65 70 70 74 80 85 82 47 38 36 33 27 23 19 16 12 8 4 1
20 14 13 14 14 12 13 12 13 12 12 11 11 12 14 17 20 22 24 20 17 22 27 32 39 45 49 54 58 62 65 69 70 73 78 83 74 41 37 35 32 27 22 19 16 13 9 4 4
18 14 11 12 12 12 11 11 12 11 11 11 11 13 14 17 21 21 22 18 17 22 27 32 39 46 49 54 57 60 64 68 69 72 76 80 71 38 36 34 31 26 20 17 15 12 10 6 8
21 16 11 12 13 13 10 11 11 11 12 11 13 13 15 18 20 21 22 17 17 23 27 33 39 46 50 52 56 60 63 66 67 70 74 78 71 39 35 34 31 26 20 15 14 12 10 10 11
19 16 11 12 15 15 13 14 13 12 10 11 13 13 15 18 19 21 22 17 18 23 26 32 38 45 48 50 55 60 62 65 65 68 72 76 71 39 33 34 32 26 19 13 14 12 12 12 11
22 19 15 14 16 14 14 15 13 13 11 12 13 14 16 19 19 21 21 17 20 22 27 31 37 43 46 49 53 58 61 62 64 65 69 73 71 42 31 32 31 25 18 14 12 14 11 9 9
25 22 18 18 16 14 14 16 13 13 12 13 13 14 16 18 19 21 21 19 20 22 26 32 37 43 45 48 52 56 60 61 63 63 65 70 71 50 30 30 30 25 18 14 12 12 12 11 7
24 23 18 17 13 15 15 17 15 14 13 13 14 15 16 18 19 20 21 20 21 22 25 30 35 40 44 47 50 54 59 59 61 60 62 66 69 59 33 28 29 26 18 14 12 10 10 11 8
Wind_Direction
286 290 292 301 304 318 300 303 300 315 311 310 310 312 310 307 307 308 309 309 309 311 312 313 314 314 313 311 309 308 308 307 307 306 303 299 296 293 290 286 283 278 271 267 265 264 262 260 259
282 287 287 293 300 33 264 285 308 306 304 305 305 306 304 303 303 304 305 306 308 311 313 314 315 312 311 310 309 310 311 310 308 305 302 301 300 297 293 289 284 277 275 270 265 262 262 260 260
281 284 288 290 294 281 282 294 298 298 301 302 302 301 301 301 302 304 306 308 309 312 314 314 311 311 310 311 315 315 311 308 306 307 308 307 303 300 296 292 288 284 277 271 270 265 258 258 260
274 278 281 279 279 289 288 293 292 294 297 297 299 301 301 303 304 304 305 308 311 313 313 311 312 311 313 316 313 310 308 309 311 311 310 308 307 303 299 295 290 286 282 277 271 267 264 256 253
272 276 283 282 275 275 281 284 287 291 292 294 298 299 300 302 301 303 306 309 311 312 314 314 312 315 316 313 313 313 315 316 317 315 313 310 306 302 298 295 291 286 280 275 272 267 263 260 254
273 273 277 278 280 283 282 285 288 290 292 295 297 298 298 298 302 305 307 310 314 315 314 312 315 315 315 316 317 320 320 319 318 315 312 311 310 308 307 302 298 297 295 288 279 272 266 260 258
273 277 276 262 285 289 294 288 289 291 294 295 296 296 298 301 303 306 310 314 315 313 311 316 316 316 318 318 320 319 317 317 316 314 313 313 313 311 307 304 301 299 295 291 289 288 281 268 259
272 272 272 272 276 280 284 285 288 290 291 293 295 298 299 301 304 310 313 316 313 312 316 318 317 316 318 320 319 319 320 320 320 318 318 316 312 308 303 299 296 295 295 293 288 279 275 275 267
275 275 278 271 282 280 278 282 286 288 290 293 295 297 300 304 309 313 316 313 311 316 319 318 316 319 322 322 322 324 325 324 321 319 317 313 308 304 300 297 295 294 291 288 284 280 272 266 266
272 271 273 281 282 287 285 286 286 288 289 293 295 297 302 308 311 313 311 310 315 319 319 318 320 323 322 323 326 327 326 324 322 317 311 308 306 303 300 296 292 288 285 281 278 273 269 265 259
271 270 269 271 276 279 282 284 284 287 290 292 296 301 306 310 310 309 309 314 318 320 319 322 324 323 323 326 328 329 328 324 318 315 312 308 304 301 297 294 292 289 285 280 274 269 264 261 258
272 270 272 274 277 278 279 280 282 284 288 293 298 303 307 306 307 308 313 317 319 322 324 325 322 323 327 330 331 330 326 321 319 316 312 310 308 305 302 297 294 291 288 282 274 268 260 256 253
282 276 274 274 276 279 280 282 283 286 290 296 300 303 302 303 307 313 317 319 322 325 325 322 323 328 331 331 332 327 323 322 318 315 316 315 312 308 305 303 300 296 293 285 279 271 260 253 248
284 279 277 278 277 278 278 279 281 286 291 296 299 300 300 305 312 316 319 322 325 324 322 323 329 332 332 334 329 326 325 321 318 320 320 320 318 315 312 309 306 301 295 290 281 271 261 252 244
291 288 285 281 278 278 280 281 286 289 293 294 294 298 304 309 316 319 321 324 323 323 324 330 333 335 336 331 330 328 325 323 323 324 326 324 321 319 315 312 308 304 299 294 288 280 269 253 243
295 291 288 291 286 284 284 285 288 290 291 291 295 302 306 314 319 321 322 322 324 325 330 335 336 337 334 333 328 328 328 328 330 330 328 326 324 321 319 316 313 309 304 295 285 277 266 256 241
299 301 299 298 294 291 289 293 289 289 288 293 299 305 311 321 321 319 322 325 324 329 336 337 339 336 336 330 330 331 333 336 334 331 330 328 327 325 323 320 319 313 308 303 296 289 278 262 244
308 305 299 296 298 289 286 287 285 284 289 296 304 309 317 321 317 319 322 325 327 335 337 339 339 339 333 334 334 337 340 338 335 334 332 332 331 329 327 327 325 324 326 317 309 301 290 277 259
303 292 289 291 293 287 285 285 282 287 293 302 309 310 317 318 318 320 323 327 332 338 337 340 341 335 334 337 341 343 343 340 338 336 336 336 334 333 335 336 341 338 328 322 319 311 301 294 277
300 292 278 289 287 285 283 280 286 291 300 305 309 312 318 315 318 320 324 329 337 336 339 340 339 333 338 342 345 347 344 341 341 340 340 339 337 339 342 351 346 338 334 333 330 326 313 306 280
297 288 281 280 281 281 278 278 286 296 298 304 307 310 311 315 317 323 326 335 338 337 338 339 336 338 344 348 350 348 344 343 343 343 343 342 341 345 353 353 349 344 343 341 339 333 326 319 284
291 282 276 280 283 279 279 286 289 297 299 302 303 308 310 317 320 325 333 338 336 335 333 335 338 344 348 351 352 348 346 346 346 347 346 346 346 350 356 354 352 349 350 347 348 343 340 325 234
286 275 278 280 278 283 281 288 295 299 297 299 304 305 312 314 320 325 336 334 331 332 334 339 345 348 351 354 351 348 348 349 349 349 349 349 351 354 356 356 354 353 354 352 351 352 352 354 131
270 273 275 273 276 280 282 286 287 296 297 299 301 303 311 313 321 329 336 330 327 329 329 342 349 352 353 355 350 349 350 351 351 352 353 352 355 356 359 357 357 357 359 358 357 356 5 25 102
260 268 278 275 275 274 274 281 292 293 291 293 295 299 311 315 319 328 331 323 320 324 337 345 351 354 355 354 350 351 352 353 352 354 355 356 358 359 2 2 2 2 3 3 2 7 22 54 101
255 259 270 276 272 277 274 274 288 282 280 288 292 304 309 313 320 328 329 322 318 323 340 347 353 356 355 352 350 353 354 354 354 356 358 359 1 1 5 5 7 6 9 12 12 19 48 72 94
256 252 260 258 271 272 271 276 275 277 277 278 286 299 306 311 322 328 328 313 317 326 342 347 354 355 354 351 352 354 355 355 356 358 360 1 5 3 7 7 9 11 14 26 24 33 63 69 89
258 257 256 266 263 268 274 270 279 274 275 271 282 298 304 310 322 327 320 309 316 330 343 348 354 355 352 351 353 355 356 356 358 359 1 4 8 8 7 9 12 16 19 33 38 44 66 68 83
253 254 254 256 265 269 270 276 275 274 271 275 284 294 300 313 322 322 321 313 317 332 344 351 353 354 350 352 354 356 358 358 359 1 3 5 10 12 10 10 14 20 24 36 53 48 47 57 86
246 255 254 259 260 259 260 266 267 271 277 277 285 292 304 313 318 321 322 314 319 333 344 348 352 351 349 353 355 357 358 359 360 2 6 7 11 15 14 13 13 21 27 38 48 49 53 57 73
Height
5894 5893 5892 5890 5893 5889 5889 5884 5884 5886 5883 5880 5878 5876 5872 5867 5864 5860 5854 5850 5847 5844 5839 5835 5831 5826 5822 5819 5815 5811 5807 5804 5801 5797 5795 5792 5789 5786 5784 5782 5782 5781 5780 5779 5779 5778 5780 5782 5784
5893 5892 5891 5888 5888 5888 5883 5881 5881 5881 5879 5877 5875 5873 5869 5865 5860 5856 5851 5846 5842 5838 5834 5829 5824 5821 5817 5813 5809 5805 5801 5798 5794 5792 5789 5785 5782 5779 5776 5774 5772 5771 5770 5769 5769 5770 5771 5773 5775
5890 5890 5889 5887 5885 5883 5880 5880 5879 5877 5874 5872 5869 5868 5865 5860 5856 5851 5846 5841 5837 5832 5828 5824 5820 5816 5811 5807 5802 5798 5794 5791 5788 5784 5781 5778 5776 5773 5770 5768 5765 5763 5762 5760 5759 5760 5761 5763 5765
5887 5887 5886 5883 5880 5881 5878 5877 5875 5872 5870 5868 5866 5862 5858 5854 5850 5845 5840 5835 5831 5827 5824 5820 5815 5809 5805 5800 5797 5793 5790 5786 5783 5780 5776 5773 5769 5765 5762 5760 5758 5756 5753 5752 5752 5751 5750 5752 5753
5884 5883 5881 5878 5878 5876 5876 5873 5870 5868 5866 5862 5860 5857 5853 5849 5844 5840 5835 5831 5826 5822 5817 5812 5808 5803 5799 5796 5791 5787 5783 5779 5775 5771 5768 5763 5760 5757 5753 5750 5749 5747 5745 5743 5741 5741 5740 5740 5742
5880 5879 5879 5877 5871 5873 5872 5869 5865 5863 5861 5858 5855 5852 5848 5844 5839 5835 5831 5825 5820 5816 5812 5808 5803 5798 5794 5789 5785 5780 5776 5771 5767 5763 5759 5755 5751 5748 5745 5742 5739 5737 5734 5733 5731 5730 5730 5729 5730
5876 5875 5875 5865 5867 5865 5866 5863 5860 5858 5855 5852 5849 5847 5842 5838 5833 5829 5824 5819 5815 5811 5807 5802 5798 5793 5789 5785 5780 5775 5771 5766 5761 5756 5752 5748 5744 5741 5738 5735 5732 5728 5725 5723 5721 5719 5718 5718 5718
5871 5870 5868 5861 5861 5862 5862 5857 5855 5853 5850 5846 5842 5841 5836 5831 5827 5823 5819 5814 5810 5805 5801 5798 5793 5788 5784 5779 5775 5770 5764 5759 5753 5748 5743 5739 5735 5731 5728 5724 5720 5717 5714 5710 5708 5707 5705 5705 5707
5866 5866 5863 5854 5854 5857 5855 5851 5849 5846 5844 5841 5837 5833 5829 5825 5821 5818 5813 5809 5805 5801 5798 5794 5789 5783 5778 5773 5767 5761 5756 5751 5746 5742 5737 5733 5728 5723 5718 5712 5707 5702 5699 5696 5694 5692 5692 5691 5695
5860 5857 5857 5853 5849 5849 5847 5846 5842 5840 5838 5835 5831 5827 5823 5819 5815 5812 5808 5804 5799 5796 5792 5787 5781 5777 5772 5766 5760 5755 5750 5746 5741 5736 5730 5724 5717 5711 5704 5697 5692 5688 5684 5682 5680 5678 5677 5676 5678
5854 5850 5850 5847 5845 5843 5841 5838 5836 5833 5832 5828 5825 5821 5817 5814 5810 5806 5803 5798 5794 5790 5785 5780 5777 5772 5766 5760 5755 5750 5745 5739 5734 5728 5721 5713 5704 5697 5689 5683 5676 5672 5667 5666 5662 5662 5661 5661 5661
5848 5846 5844 5842 5840 5837 5835 5832 5829 5827 5825 5823 5819 5816 5813 5809 5805 5801 5797 5792 5789 5785 5780 5777 5772 5766 5761 5755 5750 5744 5738 5732 5724 5717 5709 5700 5690 5681 5673 5666 5659 5653 5649 5645 5641 5642 5643 5643 5644
5837 5838 5837 5835 5833 5831 5828 5826 5824 5822 5819 5817 5814 5811 5808 5804 5800 5796 5792 5789 5785 5780 5777 5772 5767 5761 5756 5750 5744 5738 5731 5722 5714 5705 5695 5685 5674 5665 5655 5647 5638 5632 5627 5621 5618 5619 5619 5621 5624
5828 5827 5827 5826 5825 5822 5820 5819 5817 5816 5813 5810 5808 5805 5802 5799 5796 5792 5787 5784 5780 5777 5772 5767 5762 5756 5751 5745 5739 5731 5723 5713 5702 5691 5680 5669 5657 5646 5634 5624 5615 5606 5596 5592 5587 5587 5589 5592 5598
5820 5818 5816 5815 5814 5813 5811 5811 5810 5808 5806 5804 5802 5800 5797 5794 5791 5787 5783 5780 5777 5773 5767 5762 5758 5753 5747 5740 5733 5723 5714 5702 5691 5678 5664 5652 5640 5627 5612 5599 5586 5574 5561 5552 5545 5542 5546 5556 5564
5813 5810 5807 5808 5805 5804 5802 5803 5803 5802 5800 5799 5798 5796 5793 5790 5786 5783 5780 5777 5773 5768 5763 5759 5754 5748 5742 5735 5726 5716 5704 5692 5678 5663 5651 5637 5622 5608 5591 5572 5554 5537 5521 5507 5499 5496 5498 5503 5517
5807 5803 5801 5801 5799 5798 5797 5796 5797 5796 5795 5795 5793 5791 5788 5786 5782 5780 5777 5774 5768 5764 5759 5755 5750 5745 5738 5730 5720 5708 5695 5680 5666 5652 5638 5623 5606 5586 5566 5544 5522 5502 5491 5483 5479 5478 5477 5478 5481
5801 5799 5795 5795 5796 5794 5793 5792 5793 5792 5791 5790 5788 5786 5784 5782 5779 5777 5773 5769 5764 5760 5756 5752 5747 5741 5733 5724 5713 5699 5685 5671 5657 5642 5626 5609 5589 5566 5542 5517 5499 5488 5482 5477 5473 5470 5466 5463 5463
5799 5796 5792 5790 5792 5790 5789 5788 5789 5788 5787 5786 5784 5781 5780 5778 5776 5773 5770 5765 5761 5757 5753 5749 5744 5737 5728 5717 5705 5691 5677 5663 5648 5632 5614 5595 5573 5548 5523 5504 5493 5486 5479 5474 5469 5464 5459 5454 5452
5794 5792 5789 5787 5787 5786 5786 5785 5784 5784 5783 5782 5780 5778 5777 5776 5773 5770 5766 5762 5758 5754 5751 5746 5740 5732 5722 5710 5697 5683 5670 5656 5640 5622 5604 5584 5560 5535 5513 5501 5493 5485 5478 5472 5466 5461 5457 5453 5449
5789 5787 5785 5784 5784 5782 5782 5781 5780 5780 5779 5778 5776 5776 5774 5772 5769 5766 5763 5759 5755 5752 5748 5743 5737 5727 5716 5704 5691 5679 5667 5651 5634 5615 5596 5574 5550 5525 5511 5502 5494 5485 5478 5472 5467 5462 5458 5454 5451
5783 5784 5781 5781 5780 5780 5780 5779 5778 5777 5776 5775 5774 5773 5772 5770 5766 5763 5759 5755 5752 5749 5745 5740 5732 5722 5710 5699 5686 5676 5662 5645 5627 5609 5590 5568 5543 5523 5513 5504 5495 5487 5481 5474 5469 5464 5460 5457 5455
5781 5779 5778 5778 5777 5777 5777 5777 5776 5775 5773 5772 5772 5771 5769 5766 5763 5760 5757 5753 5750 5747 5742 5736 5727 5717 5706 5693 5684 5672 5657 5640 5623 5606 5587 5564 5541 5524 5515 5506 5497 5489 5483 5477 5472 5468 5464 5461 5460
5777 5776 5775 5774 5775 5775 5774 5775 5773 5772 5771 5770 5769 5768 5766 5763 5760 5757 5754 5751 5748 5744 5740 5732 5723 5713 5702 5691 5681 5669 5654 5638 5621 5604 5585 5564 5541 5526 5518 5509 5500 5492 5486 5481 5476 5472 5469 5467 5466
5773 5772 5772 5772 5772 5771 5771 5771 5770 5770 5768 5767 5767 5765 5763 5760 5758 5755 5753 5749 5746 5742 5736 5729 5720 5710 5699 5689 5679 5667 5651 5636 5619 5603 5585 5564 5543 5529 5521 5512 5503 5496 5490 5485 5481 5477 5474 5473 5473
5768 5769 5768 5767 5768 5768 5767 5768 5768 5767 5766 5766 5763 5762 5760 5758 5756 5753 5750 5746 5744 5739 5733 5725 5717 5708 5697 5688 5678 5664 5650 5635 5618 5602 5585 5565 5543 5530 5522 5514 5506 5499 5494 5489 5486 5483 5481 5480 5481
5765 5764 5765 5765 5765 5764 5765 5764 5764 5764 5764 5763 5761 5760 5758 5756 5754 5751 5747 5745 5741 5736 5731 5723 5714 5706 5696 5688 5676 5663 5649 5634 5619 5602 5586 5566 5545 5532 5524 5517 5510 5503 5499 5495 5491 5489 5487 5488 5488
5760 5760 5761 5761 5761 5762 5762 5761 5762 5761 5762 5761 5759 5757 5756 5754 5751 5748 5746 5743 5738 5734 5728 5721 5712 5705 5696 5686 5674 5662 5649 5635 5620 5604 5587 5569 5549 5535 5527 5521 5514 5508 5504 5500 5497 5495 5494 5495 5495
5754 5754 5755 5756 5758 5759 5759 5758 5759 5759 5758 5758 5756 5755 5754 5751 5748 5746 5743 5739 5735 5731 5725 5719 5711 5703 5696 5685 5674 5662 5649 5635 5621 5607 5590 5573 5554 5538 5531 5525 5519 5513 5509 5506 5504 5502 5500 5500 5501
5748 5750 5750 5752 5755 5755 5756 5756 5756 5756 5755 5755 5754 5752 5750 5749 5746 5744 5739 5737 5732 5729 5723 5717 5711 5703 5694 5684 5673 5662 5650 5637 5624 5609 5594 5577 5560 5544 5534 5529 5523 5517 5514 5511 5509 5507 5506 5506 5506